Flag for U.S.A. Weather past 2 weeks in Lynchburg, Virginia, U.S.A.

Now
80 °F

Sunny.


Feels Like: 80 °F
Forecast: 57 / 82 °F
Wind: 14 mph from South

Location: Lynchburg Regional Airport

Current Time: May 25, 2015 at 4:06:06 PM

Latest Report: May 25, 2015 at 2:54 PM


Visibility: 10 mi

Pressure: 30.25 "Hg

Humidity: 41%

Dew point: 54 °F

Location of LynchburgLocation

Historic Weather in Lynchburg — Graph

°F

Lynchburg temperature yesterday

Maximum temperature yesterday: 80 °F (at 2:54 PM)
Minimum temperature yesterday: 49 °F (at 4:54 AM)
Average temperature yesterday: 65 °F

Past Weeks' High & Low Weather Summary

 TemperatureHumidityPressure
High85 °F (May 19, 4:54 PM)100% (May 10, 7:54 PM)30.48 "Hg (May 10, 7:54 PM)
Low44 °F (May 14, 4:54 AM)28% (May 13, 4:54 PM)29.88 "Hg (May 19, 6:54 PM)
Average67 °F69%30.16 "Hg
* Reported May 10 2:54 PM — May 25 2:54 PM, Lynchburg, Weather by CustomWeather, © 2015

Note: Actual official high and low records may vary slightly from our data, if they occured in-between our weather recording intervals... More about our weather records

Advertising

Lynchburg weather history for previous 24 hours

 ConditionsComfort  
Time TempWeatherWind HumidityBarometerVisibility
2:54 PM
Mon, May 25
80 °FSunny.14 mph41%30.25 "Hg10 mi
1:54 PM79 °FSunny.8 mph44%30.27 "Hg10 mi
12:54 PM78 °FSunny.13 mph45%30.29 "Hg10 mi
11:54 AM76 °FPassing clouds.12 mph52%30.31 "Hg10 mi
10:54 AM73 °FPassing clouds.14 mph62%30.32 "Hg10 mi
9:54 AM71 °FSunny.10 mph63%30.32 "Hg10 mi
8:54 AM67 °FSunny.9 mph73%30.32 "Hg10 mi
7:54 AM62 °FSunny.7 mph83%30.31 "Hg10 mi
6:54 AM59 °FClear.5 mph87%30.30 "Hg10 mi
5:54 AM57 °FClear.6 mph90%30.29 "Hg10 mi
4:54 AM57 °FClear.6 mph87%30.29 "Hg10 mi
3:54 AM59 °FClear.6 mph84%30.28 "Hg10 mi
2:54 AM58 °FClear.3 mph87%30.28 "Hg10 mi
1:54 AM59 °FClear.No wind84%30.28 "Hg10 mi
12:54 AM61 °FClear.3 mph78%30.29 "Hg10 mi
11:54 PM
Sun, May 24
60 °FClear.No wind80%30.30 "Hg10 mi
10:54 PM63 °FClear.3 mph73%30.31 "Hg10 mi
9:54 PM63 °FClear.3 mph73%30.31 "Hg10 mi
8:54 PM67 °FSunny.5 mph63%30.29 "Hg10 mi
7:54 PM71 °FSunny.3 mph57%30.29 "Hg10 mi
6:54 PM76 °FSunny.9 mph45%30.29 "Hg10 mi
5:54 PM78 °FSunny.12 mph42%30.29 "Hg10 mi
4:54 PM79 °FSunny.8 mph41%30.29 "Hg10 mi
Weather by CustomWeather, © 2015

See weather overviewHow to use our weather pages